DL4NBA-1 Weather Reports


Display with metric or nautical units.
time (UTC)temp
F
wind
direction
speed
MPH
gust
MPH
rain 1hr
in
rain 24hr
in
rain mn
in
humidity
%
barometer
mb
20260503010251 48 238 0.0 0.0 0.00 0.00 0.00
20260503005752 46 238 0.0 0.0 0.00 0.00 0.00
20260503005254 48 238 0.0 0.0 0.00 0.00 0.00
20260503003755 49 238 0.0 0.0 0.00 0.00 0.00
20260503003257 49 238 0.0 0.0 0.00 0.00 0.00
20260503002758 49 238 0.0 0.0 0.00 0.00 0.00
20260503002300 46 238 0.0 0.0 0.00 0.00 0.00
20260503001757 46 238 0.0 0.0 0.00 0.00 0.00
20260502235802 50 129 0.0 2.0 0.00 0.00 0.00
20260502235301 49 107 0.0 0.0 0.00 0.00 0.00
20260502234802 48 107 0.0 0.0 0.00 0.00 0.00
20260502233805 48 107 0.0 0.0 0.00 0.00 0.00
20260502233306 47 107 0.0 0.0 0.00 0.00 0.00
20260502232803 47 107 0.0 0.0 0.00 0.00 0.00
20260502231806 49 107 0.0 0.0 0.00 0.00 0.00
20260502230808 47 107 0.0 0.0 0.00 0.00 0.00
20260502230307 51 107 0.0 0.0 0.00 0.00 0.00
20260502225807 50 107 0.0 0.0 0.00 0.00 0.00
20260502225309 50 107 0.0 0.0 0.00 0.00 0.00
20260502224808 51 107 0.0 0.0 0.00 0.00 0.00
20260502224309 51 107 0.0 0.0 0.00 0.00 0.00
20260502223806 50 107 0.0 0.0 0.00 0.00 0.00
20260502223307 48 107 0.0 0.0 0.00 0.00 0.00
20260502222310 50 253 0.0 0.0 0.00 0.00 0.00
20260502221310 49 253 1.0 0.0 0.00 0.00 0.00
20260502220812 51 194 2.0 2.0 0.00 0.00 0.00
20260502220313 51 181 2.0 2.0 0.00 0.00 0.00
20260502215316 55 129 0.0 0.0 0.00 0.00 0.00
20260502214316 57 129 0.0 0.0 0.00 0.00 0.00
20260502213817 56 129 0.0 0.0 0.00 0.00 0.00
20260502212820 55 129 0.0 0.0 0.00 0.00 0.00
20260502212317 58 129 0.0 0.0 0.00 0.00 0.00
20260502211320 55 129 0.0 0.0 0.00 0.00 0.00
20260502205820 55 129 0.0 0.0 0.00 0.00 0.00
20260502205321 56 129 0.0 0.0 0.00 0.00 0.00
20260502204822 55 129 0.0 0.0 0.00 0.00 0.00
20260502204323 55 129 0.0 0.0 0.00 0.00 0.00
20260502203825 54 129 0.0 0.0 0.00 0.00 0.00
20260502203322 53 129 0.0 0.0 0.00 0.00 0.00
20260502202325 60 129 0.0 0.0 0.00 0.00 0.00
20260502201826 61 129 0.0 0.0 0.00 0.00 0.00
20260502200825 61 278 0.0 0.0 0.00 0.00 0.00
20260502195827 60 278 0.0 0.0 0.00 0.00 0.00
20260502195329 60 278 1.0 0.0 0.00 0.00 0.00
20260502194326 58 308 2.0 2.0 0.00 0.00 0.00
20260502193828 58 319 3.0 3.0 0.00 0.00 0.00
20260502193329 59 304 2.0 2.0 0.00 0.00 0.00
20260502192830 60 305 2.0 2.0 0.00 0.00 0.00
20260502192331 58 318 2.0 2.0 0.00 0.00 0.00
20260502191830 58 352 1.0 1.0 0.00 0.00 0.00
20260502191331 61 335 1.0 1.0 0.00 0.00 0.00
20260502190832 62 146 0.0 0.0 0.00 0.00 0.00
20260502190334 63 146 0.0 0.0 0.00 0.00 0.00
20260502185835 63 146 0.0 0.0 0.00 0.00 0.00
20260502184833 64 146 0.0 0.0 0.00 0.00 0.00
20260502184332 64 146 0.0 0.0 0.00 0.00 0.00
20260502183334 63 146 0.0 0.0 0.00 0.00 0.00
20260502182832 66 146 0.0 0.0 0.00 0.00 0.00
20260502182333 67 146 0.0 0.0 0.00 0.00 0.00
20260502181834 68 146 0.0 0.0 0.00 0.00 0.00
20260502181335 71 146 0.0 0.0 0.00 0.00 0.00
20260502180836 75 146 0.0 0.0 0.00 0.00 0.00
20260502180333 79 146 0.0 0.0 0.00 0.00 0.00
20260502170338 85 132 1.0 3.0 0.00 0.00 0.00
20260502164339 81 198 3.0 2.0 0.00 0.00 0.00
20260502163839 81 153 3.0 2.0 0.00 0.00 0.00
20260502163340 82 190 4.0 5.0 0.00 0.00 0.00
20260502162841 80 200 5.0 5.0 0.00 0.00 0.00
20260502161840 79 187 1.0 0.0 0.00 0.00 0.00
20260502161340 79 205 3.0 5.0 0.00 0.00 0.00
20260502160840 79 204 5.0 4.0 0.00 0.00 0.00
20260502160341 78 224 6.0 2.0 0.00 0.00 0.00
20260502152338 84 148 3.0 4.0 0.00 0.00 0.00
20260502151839 81 184 1.0 4.0 0.00 0.00 0.00
20260502130336 80 208 2.0 0.0 0.00 0.00 0.00
20260502123338 83 139 5.0 12.0 0.00 0.00 0.00
20260502122838 81 139 2.0 0.0 0.00 0.00 0.00
20260502122339 84 145 7.0 8.0 0.00 0.00 0.00
20260502121841 82 131 3.0 10.0 0.00 0.00 0.00
20260502120840 83 96 4.0 3.0 0.00 0.00 0.00
20260502115842 81 117 0.0 4.0 0.00 0.00 0.00
20260502115343 82 138 10.0 9.0 0.00 0.00 0.00
20260502114840 82 125 6.0 3.0 0.00 0.00 0.00
20260502113843 81 104 8.0 5.0 0.00 0.00 0.00
20260502112845 82 83 3.0 0.0 0.00 0.00 0.00
20260502112342 82 177 5.0 8.0 0.00 0.00 0.00
20260502110347 79 87 7.0 10.0 0.00 0.00 0.00
20260502105844 80 80 8.0 3.0 0.00 0.00 0.00
20260502105345 80 103 6.0 7.0 0.00 0.00 0.00
20260502104846 80 82 7.0 7.0 0.00 0.00 0.00
20260502103345 79 121 8.0 12.0 0.00 0.00 0.00
20260502102348 78 98 8.0 3.0 0.00 0.00 0.00
20260502101849 78 107 7.0 9.0 0.00 0.00 0.00
20260502100350 77 132 3.0 3.0 0.00 0.00 0.00
20260502091357 73 117 6.0 8.0 0.00 0.00 0.00
20260502090858 72 142 11.0 8.0 0.00 0.00 0.00
20260502090359 72 120 11.0 8.0 0.00 0.00 0.00
20260502070414 62 156 5.0 3.0 0.00 0.00 0.00
20260502065915 61 89 1.0 5.0 0.00 0.00 0.00
20260502064916 60 58 4.0 5.0 0.00 0.00 0.00
20260502063918 58 108 2.0 2.0 0.00 0.00 0.00
20260502062921 56 295 0.0 0.0 0.00 0.00 0.00
20260502062419 54 295 0.0 0.0 0.00 0.00 0.00
20260502061921 54 295 0.0 0.0 0.00 0.00 0.00
20260502061422 53 295 0.0 0.0 0.00 0.00 0.00
20260502060923 53 295 0.0 0.0 0.00 0.00 0.00
20260502060425 52 295 0.0 0.0 0.00 0.00 0.00
20260502055923 52 295 0.0 0.0 0.00 0.00 0.00
20260502054926 53 295 0.0 0.0 0.00 0.00 0.00
20260502054428 52 295 0.0 0.0 0.00 0.00 0.00
20260502053929 50 295 0.0 0.0 0.00 0.00 0.00
20260502053427 49 295 0.0 0.0 0.00 0.00 0.00
20260502052929 47 295 0.0 0.0 0.00 0.00 0.00
20260502052430 45 295 0.0 0.0 0.00 0.00 0.00
20260502051931 46 356 1.0 1.0 0.00 0.00 0.00
20260502051433 48 31 2.0 1.0 0.00 0.00 0.00
20260502050931 49 45 5.0 5.0 0.00 0.00 0.00
20260502050432 48 37 4.0 4.0 0.00 0.00 0.00
20260502045435 46 256 0.0 0.0 0.00 0.00 0.00
20260502044937 43 256 0.0 0.0 0.00 0.00 0.00
20260502044434 44 256 0.0 0.0 0.00 0.00 0.00
20260502043437 45 256 0.0 0.0 0.00 0.00 0.00
20260502042939 42 256 0.0 0.0 0.00 0.00 0.00
20260502042440 41 256 0.0 0.0 0.00 0.00 0.00
20260502041939 42 256 0.0 0.0 0.00 0.00 0.00
20260502040942 40 256 0.0 0.0 0.00 0.00 0.00
20260502040444 39 256 0.0 0.0 0.00 0.00 0.00
20260502035945 39 256 0.0 0.0 0.00 0.00 0.00
20260502035442 38 256 0.0 0.0 0.00 0.00 0.00
20260502034944 39 256 0.0 0.0 0.00 0.00 0.00
20260502034445 38 256 0.0 0.0 0.00 0.00 0.00
20260502033947 37 256 0.0 0.0 0.00 0.00 0.00
20260502032946 41 256 0.0 0.0 0.00 0.00 0.00
20260502030952 38 256 0.0 0.0 0.00 0.00 0.00
20260502030451 38 256 0.0 0.0 0.00 0.00 0.00
20260502025952 38 256 0.0 0.0 0.00 0.00 0.00
20260502024955 41 256 0.0 0.0 0.00 0.00 0.00
20260502023954 40 256 0.0 0.0 0.00 0.00 0.00
20260502022957 43 256 0.0 0.0 0.00 0.00 0.00
20260502022459 40 256 0.0 0.0 0.00 0.00 0.00
20260502022000 40 256 0.0 0.0 0.00 0.00 0.00
20260502021000 42 256 0.0 0.0 0.00 0.00 0.00
20260502020502 43 256 0.0 0.0 0.00 0.00 0.00
20260502020003 44 256 0.0 0.0 0.00 0.00 0.00
20260502015505 43 256 0.0 0.0 0.00 0.00 0.00
20260502014006 41 256 0.0 0.0 0.00 0.00 0.00
20260502013508 43 256 0.0 0.0 0.00 0.00 0.00
20260502012507 42 256 0.0 0.0 0.00 0.00 0.00
20260502012008 43 256 0.0 0.0 0.00 0.00 0.00
20260502011510 45 256 0.0 0.0 0.00 0.00 0.00
20260502011011 43 256 0.0 0.0 0.00 0.00 0.00